[[{"header":{"parameterUnit":"m.s-1","parameterCategory":1,"la1":30.2991,"la2":30.254,"lo1":-89.0895,"lo2":-89.0444,"dy":0.0017,"dx":0.0017,"nx":28,"ny":28,"refTime":"2024-06-25T09:00:00:Z","depth":0,"parameterNumber":2,"parameterNumberName":"U-component_of_WINDS"},"data":[0,0,0,0,0,0,0,0,0,0,0,0,0,0,0,0,0,0,0,0,0,0,0,0,0,0,0,0,0,0,0,0,0,0,0,0,0,0,0,0,0,0,0,0,0,0,0,0,0,0,0,0,0,0,0,0,0,0,5.5078,5.508,0,5.5275,5.5278,5.528,5.5223,5.5219,5.5215,5.5211,5.5418,5.5427,5.5436,0,0,0,0,0,0,0,0,0,0,0,0,0,5.4653,5.4661,5.5077,5.508,5.5082,5.5275,5.5278,5.528,5.5223,5.5218,5.5213,5.5209,5.5415,5.5426,5.5437,0,0,0,0,0,0,0,0,0,0,0,0,0,5.4843,5.4663,5.5077,5.5077,5.5079,5.5274,5.5278,5.5281,5.5224,5.5218,5.5212,5.5206,5.5411,5.5425,5.5438,5.5647,0,0,5.5481,5.5487,0,0,0,0,0,0,0,0,5.4832,5.4858,5.5074,5.5077,5.508,5.5218,5.5204,5.5404,5.5226,5.5169,5.5211,5.5203,5.5356,5.5375,5.5425,5.5657,5.5666,5.5482,5.5491,5.5497,5.5501,0,0,0,0,0,0,0,5.4819,5.4849,5.5156,5.5078,5.5081,5.5068,5.5088,5.5241,5.5295,5.5174,5.517,5.5194,5.5357,5.5412,5.543,5.5669,5.5482,5.5494,5.5503,5.5508,5.6079,5.6086,0,0,0,0,0,0,5.4803,5.4839,5.5149,5.5162,5.4938,5.5081,5.5103,5.518,5.5293,5.5304,5.5199,5.5191,5.5391,5.5413,5.5437,5.5687,5.5497,5.551,5.5518,5.6073,5.6081,5.6088,0,0,0,0,0,0,5.4794,5.4832,5.5141,5.4999,5.5038,5.5094,5.5181,5.5187,5.5242,5.5312,5.5322,5.5245,5.5387,5.5417,5.5594,5.5693,5.5516,5.5529,5.6065,5.6075,5.6085,5.619,0,0,0,0,0,0,5.4782,5.4829,5.4908,5.5002,5.5046,5.5295,5.5187,5.5195,5.5266,5.5257,5.5358,5.5369,5.5385,5.5574,5.5608,5.5709,5.554,5.6056,5.6069,5.6081,5.6178,5.6202,5.6223,0,0,0,0,0,5.4767,5.4931,5.4912,5.495,5.5146,5.5301,5.5326,5.534,5.5274,5.5354,5.5399,5.5366,5.5677,5.5593,5.5631,5.5737,5.605,5.6066,5.608,5.6167,5.6197,5.6223,0,0,0,0,0,0,5.485,5.4943,5.4924,5.5122,5.5204,5.5291,5.5393,5.5371,5.5474,5.5462,5.5475,5.5499,5.568,5.5727,5.5631,5.5944,5.5854,5.5878,5.5907,5.5936,5.5958,5.5943,5.5551,0,0,0,0,0,5.4891,5.5008,5.5084,5.5252,5.5294,5.5337,5.5405,5.5408,5.5493,5.5528,5.5586,5.5671,5.5788,5.5865,5.5976,5.6184,5.6205,5.6277,5.6299,5.6318,5.6338,5.6449,5.6481,5.6138,5.6138,5.6138,0,0,5.4977,5.5043,5.5116,5.527,5.5334,5.5455,5.5366,5.5499,5.5589,5.5549,5.5718,5.5764,5.5861,5.6053,5.6141,5.6098,5.6437,5.6337,5.6351,5.6361,5.6468,5.65,5.6529,5.6149,5.6147,5.6145,0,0,5.5196,5.5258,5.5404,5.5469,5.5565,5.5592,5.5627,5.5718,5.5746,5.5916,5.5888,5.5996,5.6198,5.6266,5.6328,5.6571,5.6544,5.6608,5.6726,5.6835,5.6862,5.6886,5.6971,5.7001,5.6628,5.6628,5.6628,0,5.5292,5.5472,5.5482,5.5616,5.5684,5.5651,5.5799,5.5862,5.5991,5.6039,5.5988,5.6239,5.6302,5.6509,5.6568,5.662,5.666,5.6596,5.6857,5.6881,5.6904,5.6985,5.7017,5.6635,5.6634,5.6633,5.6633,0,5.5584,5.571,5.5816,5.5939,5.6019,5.616,5.6191,5.6271,5.6267,5.6299,5.6473,5.6547,5.6671,5.6721,5.672,5.6929,5.6898,5.6853,5.6762,5.6943,5.7019,5.7051,5.6645,5.6642,5.664,5.6638,0,0,5.5861,5.5985,5.6024,5.6078,5.6182,5.628,5.6419,5.6539,5.6607,5.6697,5.6813,5.6983,5.6941,5.7011,5.7017,5.7112,5.7298,5.7054,5.7057,5.7095,5.753,5.7563,5.7599,5.7281,5.7287,5.7292,5.7522,0,5.6087,5.6329,5.6341,5.6562,5.6677,5.6647,5.6768,5.6845,5.6879,5.6983,5.7021,5.714,5.7076,5.7118,5.7211,5.7255,5.7385,5.7239,5.7389,5.7394,5.7363,5.7639,5.7674,5.7888,5.7552,5.7557,5.7561,0,5.6383,5.648,5.6711,5.6796,5.6845,5.6953,5.7063,5.7163,5.7249,5.7267,5.7344,5.7336,5.7478,5.7383,5.7579,5.748,5.7542,5.7573,5.7582,5.7595,5.7487,5.7658,5.7957,5.7988,5.7608,5.7604,5.7601,0,5.6559,5.6748,5.6909,5.6957,5.7061,5.7137,5.7185,5.7265,5.7336,5.7433,5.7478,5.7592,5.7653,5.7741,5.7764,5.7693,5.7959,5.7866,5.7977,5.7977,5.8034,5.803,5.8345,5.8077,5.8077,5.8076,5.8075,0,5.681,5.6952,5.6989,5.7089,5.7247,5.726,5.7417,5.7459,5.753,5.7638,5.762,5.7721,5.7745,5.7852,5.7871,5.8029,5.8058,5.8076,5.8079,5.8077,5.8074,5.8116,5.8102,5.8085,5.8083,5.8081,5.808,0,5.7033,5.7064,5.7238,5.7321,5.7345,5.7458,5.7529,5.7625,5.7656,5.7792,5.7825,5.7875,5.7999,5.803,5.8179,5.8192,5.8378,5.8368,5.8348,5.8347,5.8455,5.8444,5.8807,5.8855,5.8558,5.8561,5.8563,0,5.719,5.7298,5.7392,5.7461,5.7511,5.7624,5.7696,5.7713,5.7788,5.7893,5.7976,5.8098,5.8195,5.8395,5.8445,5.8558,5.855,5.8669,5.8567,5.856,5.8549,5.8542,5.8552,5.8688,5.8691,5.8694,5.8696,0,5.7464,5.7473,5.7576,5.7684,5.7769,5.7856,5.7939,5.7997,5.8025,5.8111,5.8236,5.8312,5.8462,5.8583,5.8697,5.8746,5.8726,5.8728,5.8759,5.8757,5.874,5.8749,5.8399,5.8719,5.8717,5.8715,5.8714,5.8713,5.7658,5.7751,5.7831,5.7946,5.8009,5.8087,5.818,5.8222,5.8326,5.8448,5.8452,5.8588,5.8671,5.8821,5.8877,5.8984,5.8948,5.8994,5.9005,5.9016,5.9024,5.8724,5.9005,5.9005,5.9004,5.9004,5.9003,0,5.7929,5.7979,5.8084,5.8199,5.8289,5.8261,5.835,5.8428,5.8547,5.8625,5.8721,5.8864,5.898,5.9039,5.9154,5.9229,5.9222,5.9258,5.9252,5.9263,5.9051,5.9011,5.9261,5.9261,5.9261,5.9261,5.9261,5.9261,5.8081,5.8237,5.8256,5.8444,5.8493,5.8624,5.8677,5.8748,5.881,5.897,5.9066,5.9103,5.9173,5.9293,5.9398,5.9412,5.9455,5.9495,5.9505,5.9305,5.9279,5.9253,5.9216,5.9505,5.9505,5.9708,5.971,5.9711]},{"header":{"parameterUnit":"m.s-1","parameterCategory":1,"la1":30.2991,"la2":30.254,"lo1":-89.0895,"lo2":-89.0444,"dy":0.0017,"dx":0.0017,"nx":28,"ny":28,"refTime":"2024-06-25T09:00:00:Z","depth":0,"parameterNumber":3,"parameterNumberName":"V-component_of_WINDS"},"data":[0,0,0,0,0,0,0,0,0,0,0,0,0,0,0,0,0,0,0,0,0,0,0,0,0,0,0,0,0,0,0,0,0,0,0,0,0,0,0,0,0,0,0,0,0,0,0,0,0,0,0,0,0,0,0,0,0,0,0.5422,0.5422,0,0.5387,0.5387,0.5386,0.5345,0.5344,0.5344,0.5343,0.5307,0.5306,0.5306,0,0,0,0,0,0,0,0,0,0,0,0,0,0.5453,0.5453,0.5422,0.5422,0.5421,0.5387,0.5387,0.5386,0.5345,0.5344,0.5343,0.5343,0.5307,0.5307,0.5306,0,0,0,0,0,0,0,0,0,0,0,0,0,0.5431,0.5453,0.5422,0.5397,0.5394,0.5387,0.5387,0.5386,0.5345,0.5344,0.5343,0.5342,0.5307,0.5307,0.5306,0.5321,0,0,0.5304,0.5304,0,0,0,0,0,0,0,0,0.5433,0.543,0.5401,0.5399,0.5396,0.5369,0.5384,0.5364,0.5345,0.5364,0.5343,0.5342,0.5328,0.5326,0.5321,0.532,0.5318,0.5304,0.5304,0.5304,0.5304,0,0,0,0,0,0,0,0.5434,0.5431,0.5408,0.5401,0.5397,0.5387,0.5383,0.538,0.5352,0.5362,0.5359,0.5355,0.5327,0.5322,0.532,0.5318,0.5304,0.5304,0.5303,0.5303,0.5326,0.5327,0,0,0,0,0,0,0.544,0.5433,0.5409,0.5407,0.5412,0.5387,0.5382,0.5379,0.5352,0.5347,0.5356,0.5354,0.5324,0.5321,0.5319,0.5335,0.5304,0.5303,0.5303,0.5325,0.5326,0.5327,0,0,0,0,0,0,0.544,0.5438,0.5411,0.5419,0.5415,0.5387,0.5384,0.5379,0.5374,0.5347,0.5342,0.5357,0.5323,0.532,0.5321,0.5333,0.5303,0.5302,0.5324,0.5326,0.5327,0.5368,0,0,0,0,0,0,0.5442,0.5438,0.5444,0.542,0.5415,0.5414,0.5384,0.5378,0.5373,0.5369,0.5346,0.5342,0.5322,0.5322,0.532,0.5332,0.5302,0.5323,0.5325,0.5326,0.5366,0.5371,0.5375,0,0,0,0,0,0.5443,0.5458,0.5445,0.5442,0.5422,0.5415,0.5412,0.5389,0.5374,0.538,0.5362,0.5342,0.5332,0.5323,0.532,0.5332,0.5322,0.5324,0.5326,0.5363,0.537,0.5375,0,0,0,0,0,0,0.5485,0.5454,0.544,0.5447,0.5434,0.5408,0.5414,0.5396,0.5387,0.5384,0.5355,0.535,0.5355,0.5343,0.5333,0.5345,0.5324,0.5326,0.5353,0.5359,0.5364,0.5367,0.5302,0,0,0,0,0,0.5495,0.5492,0.5465,0.5474,0.5468,0.5442,0.5439,0.5422,0.5407,0.5401,0.5384,0.5371,0.5364,0.5361,0.5353,0.5363,0.5357,0.537,0.5375,0.5379,0.5381,0.5385,0.539,0.5334,0.5334,0.5334,0,0,0.5516,0.5498,0.5498,0.5482,0.547,0.5468,0.5438,0.5437,0.5435,0.5401,0.5401,0.5388,0.5371,0.5377,0.5378,0.5367,0.5395,0.5382,0.5385,0.5385,0.5388,0.5393,0.5398,0.5336,0.5336,0.5335,0,0,0.5553,0.5539,0.5545,0.5533,0.5515,0.5498,0.5499,0.5476,0.5466,0.5465,0.544,0.5436,0.5426,0.5415,0.5408,0.5439,0.542,0.5437,0.5463,0.5468,0.5472,0.5476,0.5487,0.5492,0.5439,0.544,0.544,0,0.5581,0.5577,0.555,0.5551,0.5544,0.5513,0.5518,0.5508,0.5489,0.5485,0.5472,0.5458,0.5444,0.5447,0.5454,0.5449,0.545,0.5441,0.5473,0.5477,0.548,0.5491,0.5495,0.5442,0.5442,0.5441,0.5441,0,0.5612,0.561,0.5616,0.5598,0.5592,0.5595,0.5569,0.5566,0.5549,0.5533,0.5533,0.5515,0.5503,0.5502,0.5486,0.5502,0.5496,0.5479,0.5457,0.5488,0.5498,0.5502,0.5445,0.5444,0.5444,0.5443,0,0,0.5676,0.5643,0.5646,0.5637,0.5614,0.5611,0.5612,0.5601,0.5599,0.5586,0.5586,0.5577,0.5561,0.5553,0.5535,0.5538,0.5565,0.5521,0.552,0.553,0.5582,0.5595,0.5601,0.5551,0.5552,0.5553,0.5583,0,0.571,0.5711,0.5686,0.5694,0.5691,0.566,0.5661,0.5647,0.5631,0.5626,0.5609,0.5603,0.5582,0.5577,0.5579,0.5561,0.5575,0.5558,0.5552,0.5552,0.5558,0.5605,0.562,0.565,0.5587,0.5587,0.5588,0,0.5749,0.5739,0.5746,0.5722,0.572,0.5721,0.5708,0.5703,0.5686,0.5675,0.5665,0.5644,0.5643,0.5622,0.562,0.5609,0.5605,0.5595,0.5596,0.5595,0.5573,0.5607,0.5659,0.5664,0.5593,0.5593,0.5592,0,0.5796,0.5783,0.5786,0.5779,0.5751,0.5753,0.5741,0.5723,0.5717,0.5705,0.5701,0.569,0.5684,0.5675,0.5651,0.5638,0.5652,0.5629,0.5643,0.5643,0.5648,0.5648,0.5701,0.5644,0.5644,0.5644,0.5644,0,0.5837,0.5842,0.5806,0.5808,0.5813,0.5785,0.579,0.5776,0.576,0.5757,0.573,0.5728,0.5697,0.5691,0.5672,0.5674,0.5671,0.5662,0.5657,0.5665,0.5666,0.5662,0.566,0.5645,0.5644,0.5644,0.5644,0,0.589,0.5866,0.5867,0.584,0.5833,0.5838,0.5815,0.5815,0.5797,0.5795,0.5793,0.5765,0.5757,0.5732,0.5719,0.5706,0.5713,0.5703,0.5719,0.5716,0.5732,0.5731,0.5785,0.579,0.5729,0.5729,0.573,0,0.5918,0.5922,0.5895,0.5892,0.5881,0.5876,0.587,0.5842,0.5837,0.5817,0.582,0.581,0.58,0.5789,0.5768,0.5757,0.5747,0.5766,0.5745,0.5753,0.5748,0.5748,0.5749,0.5771,0.5772,0.5773,0.5773,0,0.5971,0.5958,0.5951,0.5939,0.5932,0.5921,0.5909,0.5908,0.5876,0.5871,0.5863,0.5856,0.5841,0.5832,0.5817,0.5805,0.5784,0.578,0.5783,0.5792,0.5801,0.5797,0.5733,0.5779,0.5779,0.5778,0.5778,0.5778,0.6013,0.6014,0.5996,0.5988,0.5976,0.5964,0.5963,0.5945,0.5938,0.5924,0.5907,0.5901,0.5883,0.5861,0.585,0.5844,0.5833,0.5837,0.5838,0.5839,0.5843,0.5801,0.5841,0.5841,0.5841,0.5841,0.584,0,0.6064,0.6051,0.6044,0.6027,0.6021,0.6001,0.5986,0.5982,0.5977,0.5961,0.5953,0.5943,0.5933,0.591,0.5898,0.5898,0.5888,0.5896,0.5896,0.5894,0.5854,0.5853,0.5904,0.5904,0.5904,0.5904,0.5904,0.5904,0.6091,0.6092,0.6078,0.6072,0.6058,0.6052,0.6045,0.6035,0.6022,0.6013,0.6004,0.5989,0.5971,0.5957,0.5947,0.5941,0.5938,0.5949,0.5939,0.5903,0.5897,0.5891,0.589,0.5948,0.5948,0.598,0.598,0.598]}]]